Tracking 31027 objects as of 19-Jul-2025
HD Live streaming from Space Station
objects crossing your sky now

FENGYUN 1C DEB

Track FENGYUN 1C DEB now!
10-day predictions


NORAD ID: 30679
Int'l Code: 1999-025AQM
Perigee: 845.6 km
Apogee: 1,100.3 km
Inclination: 99.4 °
Period: 104.4 minutes
Semi major axis: 7343 km
RCS: 0.0204 m2 (small)
Launch date: May 10, 1999
Source: People's Republic of China (PRC)
Launch site: Taiyaun Space Center, China (TSC)

Note: This is SATELLITE DEBRIS
Your satellite tracking list
FLOCK 4X 28
Track 1 satellite(s)




NASA's NSSDC Master Catalog

Two Line Element Set (TLE):
1 30679U 99025AQM 25199.63840172  .00000383  00000-0  37009-3 0  9993
2 30679  99.3978 252.5587 0173406 106.7330  43.4988 13.79463785924977
Source of the keplerian elements: AFSPC